Happy Valentine's Day! 

Flight Track Log - Related Links

Times and Time Zones

All times are in EDT time to prevent confusion due to time zone crossing. See the SWA655 flight status page for this flight to view local times or setup timezone preferences in your user account.


Time Position Orientation Groundspeed Altitude Reporting Facility
EDT Latitude Longitude Course Direction KTS MPH feet Rate Location/Type
Sun 01:30:22 PM 32.8333 -96.8333 157° South 168 193 1,400  Level Dallas / Fort Worth TRACON
Sun 01:30:58 PM 32.8000 -96.8167 157° South 191 220 2,300 2,688 Climbing Dallas / Fort Worth TRACON
Sun 01:31:58 PM 32.7667 -96.7667 128° Southeast 216 249 5,700 2,724 Climbing Dallas / Fort Worth TRACON
Sun 01:33:41 PM 32.6567 -96.8236 204° Southwest 272 313 9,700 2,577 Climbing Fort Worth Center
Sun 01:34:41 PM 32.5839 -96.8711 209° Southwest 299 344 12,700 2,300 Climbing Fort Worth Center
Sun 01:35:41 PM 32.5089 -96.9158 207° Southwest 324 373 14,300 2,050 Climbing Fort Worth Center
Sun 01:36:41 PM 32.4108 -96.9778 208° Southwest 350 403 16,800 2,250 Climbing Fort Worth Center
Sun 01:37:41 PM 32.3297 -97.0322 210° Southwest 372 428 18,800 2,000 Climbing Fort Worth Center
Sun 01:38:41 PM 32.2317 -97.0719 199° South 377 434 20,800 1,800 Climbing Fort Worth Center
Sun 01:39:41 PM 32.1253 -97.0994 192° South 383 441 22,400 3,600 Climbing Fort Worth Center
Sun 01:40:41 PM 32.0125 -97.1267 192° South 393 452 28,000 1,750 Climbing Fort Worth Center
Sun 01:41:41 PM 31.8894 -97.1564 192° South 412 474 25,900 -350 Descending Fort Worth Center
Sun 01:42:41 PM 31.7767 -97.1861 193° South 412 474 27,300 1,050 Climbing Fort Worth Center
Sun 01:43:41 PM 31.6558 -97.2156 192° South 427 491 28,000 339 Climbing Fort Worth Center
Sun 01:44:45 PM 31.5308 -97.2469 192° South 447 514 28,000  Level Houston Center
Sun 01:45:48 PM 31.4067 -97.2772 192° South 450 518 28,000  Level Houston Center
Sun 01:46:50 PM 31.2842 -97.3072 192° South 447 514 28,000  Level Houston Center
Sun 01:47:52 PM 31.1619 -97.3381 192° South 446 513 28,000 -97 Level Houston Center
Sun 01:48:54 PM 31.0214 -97.3744 193° South 445 512 27,800 -581 Descending Houston Center
Sun 01:49:56 PM 30.9003 -97.4042 192° South 451 519 26,800 -1,016 Descending Houston Center
Sun 01:50:58 PM 30.7825 -97.4317 191° South 438 504 25,700 -1,065 Descending Houston Center
Sun 01:52:00 PM 30.6722 -97.4575 191° South 408 470 24,600 -823 Descending Houston Center
Sun 01:53:02 PM 30.5639 -97.4850 192° South 399 459 24,000 -290 Descending Houston Center
Sun 01:54:04 PM 30.4383 -97.5167 192° South 394 453 24,000 -677 Level Houston Center
Sun 01:55:06 PM 30.3347 -97.5586 199° South 390 449 22,600 -1,548 Descending Houston Center
Sun 01:56:08 PM 30.2389 -97.6267 212° Southwest 397 457 20,800 -1,979 Descending Houston Center
Sun 01:56:40 PM 30.1944 -97.6597 213° Southwest 395 455 19,500 -2,226 Descending Houston Center
Sun 01:57:10 PM 30.1444 -97.6917 209° Southwest 393 452 18,500 -2,087 Descending Houston Center
Sun 01:58:12 PM 30.0444 -97.7600 211° Southwest 376 433 16,300 -2,016 Descending Houston Center
Sun 01:59:15 PM 29.9583 -97.8194 211° Southwest 362 417 14,300 -1,776 Descending Houston Center
Sun 02:00:17 PM 29.8811 -97.8969 221° Southwest 348 400 12,600 -1,322 Descending Houston Center
Sun 02:01:13 PM 29.8472 -97.9814 245° Southwest 314 361 11,700 -1,500 Descending Houston Center
Sun 02:02:21 PM 29.8047 -98.0806 244° Southwest 304 350 9,500 -1,686 Descending Houston Center
Sun 02:03:14 PM 29.7753 -98.1542 245° Southwest 301 346 8,300 -1,053 Descending Houston Center
Sun 02:04:15 PM 29.7453 -98.2372 247° West 276 318 7,500 -1,031 Descending Houston Center
Sun 02:05:22 PM 29.7067 -98.3192 242° Southwest 255 293 6,100 -1,164 Descending Houston Center
Sun 02:06:29 PM 29.6903 -98.4042 258° West 253 291 4,900 -984 Descending Houston Center
Sun 02:07:24 PM 29.6572 -98.4644 238° Southwest 237 273 4,100 -1,096 Descending Houston Center
Sun 02:08:24 PM 29.6183 -98.5222 232° Southwest 194 223 2,800 -1,096 Descending Houston Center
Sun 02:09:19 PM 29.5817 -98.5336 195° South 140 161 2,000 -828 Descending Houston Center
Sun 02:10:20 PM 29.5558 -98.5031 134° Southeast 130 150 1,200 -787 Descending Houston Center
Sun 02:12:00 PM 29.5340 -98.4691 221° Southwest  Level Estimated
Sun 02:19:00 PM 29.5333 -98.4667 16° North  Level FlightAware Approximate
Sun 02:20:00 PM 29.5340 -98.4691 16° North  Level Estimated

Login

Don't have an account? Register now (free) for customized features, flight alerts, and more!